Regional Weather Roundup
Issued by NWS Sioux Falls, SD

Home | Current Version | Previous Version | Graphics & Text | Print | Product List | Glossary On
Versions: 1 2 3 4 5 6 7 8 9 10 11 12 13 14 15 16 17 18 19 20 21 22 23 24 25 26 27 28 29 30 31 32 33 34 35 36 37 38 39 40 41 42 43 44 45 46 47 48 49 50
000
ASUS43 KFSD 190802
RWRFSD

WEATHER ROUNDUP FOR SE SOUTH DAKOTA/SW MINNESOTA/NW IOWA
NATIONAL WEATHER SERVICE SIOUX FALLS SD
300 AM CDT SAT APR 19 2014

NOTE: "FAIR" INDICATES FEW OR NO CLOUDS BELOW 12,000 FEET WITH NO
SIGNIFICANT WEATHER AND OR OBSTRUCTIONS TO VISIBILITY.


SDZ038>040-050-052>070-190900-
SOUTHEAST SOUTH DAKOTA

CITY           SKY/WX    TMP DP  RH WIND       PRES   REMARKS
CHAMBERLAIN      N/A     64  43  46 SW23      29.75F
HURON          CLOUDY    59  42  53 S22G32    29.75F
MADISON        FAIR      55  39  54 S24G31    29.89F
MITCHELL       CLOUDY    60  43  53 S22       29.84F
SIOUX FALLS    MOCLDY    57  40  52 S23G31    29.91S
WINNER         FAIR      65  43  44 SW31G40   29.75F
YANKTON        PTCLDY    55  41  58 S17G24    29.90F
$$

MNZ071-072-080-081-089-090-097-098-190900-
SOUTHWEST MINNESOTA

CITY           SKY/WX    TMP DP  RH WIND       PRES   REMARKS
FAIRMONT       PTCLDY    46  28  49 SE22G28   30.07F
JACKSON        MOCLDY    50  34  53 S21       30.03F
LUVERNE        MOCLDY    54  37  54 S21G26    29.95S
MARSHALL       CLOUDY    48  36  61 SE16      29.96R
MONTEVIDEO     CLOUDY    48  36  61 S23G31    29.93F
PIPESTONE      CLOUDY    52  39  62 S18G25    29.94R
REDWOOD FALLS  MOCLDY    47  33  58 SE16G26   30.04R
TRACY          MOCLDY    50  37  61 S10G21    30.00R
WINDOM         MOCLDY    48  36  61 SE20      30.01S
WORTHINGTON    MOCLDY    48  34  57 S18G24    30.00F
$$

IAZ001>003-012>014-020>022-031-032-NEZ013-014-SDZ071-190900-
NORTHWEST IOWA

CITY           SKY/WX    TMP DP  RH WIND       PRES   REMARKS
CHEROKEE       MOCLDY    51  38  62 S14       30.02F
DENISON        MOCLDY    54  39  58 S23G32    30.03F
ESTHERVILLE    MOCLDY    45  35  68 SE18      30.04F
SHELDON        MOCLDY    52  39  62 S21       29.98S
SIOUX CITY     PTCLDY    54  40  59 SE16      29.99S
SPENCER        MOCLDY    50  37  61 S22G29    30.02F
STORM LAKE     MOCLDY    50  39  66 S18G25    30.05S
$$

ABBREVIATIONS USED IN REMARKS
   TC - TEMPERATURE IN CELSIUS
  WCI - WIND CHILL INDEX
   HX - HEAT INDEX
  VSB - VISIBILITY




USA.gov is the U.S. government's official web portal to all federal, state and local government web resources and services.